Jamestown, NY

11:47 AM EST on December 11, 2019 (GMT -0500)
Chautauqua County-Jamestown

Weather History for KJHW - October, 2019

Change the Weather History Date:

Wednesday, October 2, 2019

  Actual Average Record
Temperature  
Mean Temperature 63 °F -  
Max Temperature 75 °F 63 °F 84 °F (1988)
Min Temperature 51 °F 40 °F 29 °F (1960)
Degree Days  
Heating Degree Days 2    
Growing Degree Days 13 (Base 50)    
Moisture  
Dew Point 63 °F    
Average Humidity 93    
Maximum Humidity 100    
Minimum Humidity 73    
Precipitation  
Precipitation 0.12 in - - ()
Sea Level Pressure  
Sea Level Pressure 29.95 in    
Wind  
Wind Speed 8 mph (NW)    
Max Wind Speed 16 mph    
Max Gust Speed 20 mph    
Visibility 7 miles    
Events Fog , Rain    
Averages and records for this station are not official NWS values.
T = Trace of Precipitation, MM = Missing Value Source: NWS Daily Summary

Daily Weather History Graph

Daily Weather History Graph

Search for Another Location

Airport or City:

Astronomy

Oct. 02, 2019 Rise Set
Actual Time 7:14 AM EDT 6:57 PM EDT
Civil Twilight 6:46 AM EDT 7:25 PM EDT
Nautical Twilight 6:14 AM EDT 7:57 PM EDT
Astronomical Twilight 5:41 AM EDT 8:30 PM EDT
Moon 11:42 AM EDT (10/2) 9:45 PM EDT (10/2)
Length of Visible Light 12h 38m
Length of Day
11h 42m
Waxing Crescent, 20% of the Moon is Illuminated
Oct 2
Waxing Crescent
Oct 5
First Quarter
Oct 13
Full
Oct 21
Last Quarter
Oct 27
New

Hourly Weather History & Observations

Time (EDT) Temp. Dew Point Humidity Pressure Visibility Wind Dir Wind Speed Gust Speed Precip Events Conditions
12:56 AM 66.9 °F 66.0 °F 97% 29.94 in 8.0 mi SW 5.8 mph - N/A   Clear
1:56 AM 66.9 °F 66.0 °F 97% 29.94 in 8.0 mi SW 5.8 mph - N/A   Overcast
2:56 AM 68.0 °F 66.0 °F 93% 29.91 in 10.0 mi SSW 5.8 mph - N/A   Overcast
3:56 AM 66.9 °F 66.0 °F 97% 29.90 in 9.0 mi South 5.8 mph - N/A   Partly Cloudy
4:56 AM 69.1 °F 66.0 °F 90% 29.90 in 10.0 mi SW 9.2 mph - 0.00 in   Overcast
5:56 AM 71.1 °F 64.9 °F 81% 29.89 in 10.0 mi West 11.5 mph - N/A   Mostly Cloudy
6:56 AM 70.0 °F 64.9 °F 84% 29.91 in 10.0 mi West 8.1 mph - 0.00 in Rain Light Rain
7:12 AM 69.8 °F 64.4 °F 83% 29.93 in 10.0 mi NNW 10.4 mph - 0.00 in   Overcast
7:20 AM 68.0 °F 66.2 °F 94% 29.93 in 10.0 mi WNW 5.8 mph - 0.00 in   Mostly Cloudy
7:40 AM 66.2 °F 64.4 °F 94% 29.92 in 10.0 mi Calm Calm - 0.00 in   Scattered Clouds
7:56 AM 66.9 °F 64.9 °F 93% 29.90 in 8.0 mi SW 3.5 mph - 0.00 in   Scattered Clouds
8:56 AM 69.1 °F 66.0 °F 90% 29.91 in 10.0 mi West 4.6 mph - N/A   Overcast
9:56 AM 73.0 °F 66.9 °F 81% 29.91 in 10.0 mi WSW 9.2 mph - N/A   Partly Cloudy
10:56 AM 73.9 °F 66.9 °F 79% 29.91 in 10.0 mi West 8.1 mph - N/A   Mostly Cloudy
11:56 AM 75.0 °F 66.0 °F 73% 29.91 in 10.0 mi West 10.4 mph - N/A   Overcast
12:25 PM 73.4 °F 66.2 °F 78% 29.93 in 10.0 mi NW 10.4 mph - N/A   Overcast
12:56 PM 70.0 °F 66.9 °F 90% 29.93 in 8.0 mi NW 16.1 mph - 0.01 in Rain Light Rain
1:18 PM 69.8 °F 66.2 °F 88% 29.94 in 8.0 mi NW 9.2 mph - 0.00 in Rain Light Rain
1:51 PM 69.8 °F 66.2 °F 88% 29.94 in 10.0 mi NW 13.8 mph - 0.00 in   Overcast
1:56 PM 69.1 °F 66.0 °F 90% 29.93 in 10.0 mi WNW 9.2 mph 19.6 mph 0.00 in   Overcast
2:53 PM 66.2 °F 64.4 °F 94% 29.94 in 2.0 mi NNW 12.7 mph - 0.00 in   Overcast
2:56 PM 66.0 °F 64.9 °F 96% 29.94 in 1.0 mi North 9.2 mph - 0.00 in   Overcast
2:58 PM 64.4 °F 64.4 °F 100% 29.94 in 0.5 mi North 9.2 mph - N/A Fog Fog
3:06 PM 64.4 °F 62.6 °F 94% 29.95 in 0.2 mi North 10.4 mph - N/A Fog Fog
3:38 PM 62.6 °F 62.6 °F 100% 29.96 in 0.8 mi North 10.4 mph - N/A   Overcast
3:47 PM 62.6 °F 62.6 °F 100% 29.95 in 1.2 mi NNW 8.1 mph - N/A   Overcast
3:51 PM 64.4 °F 62.6 °F 94% 29.96 in 3.0 mi NNW 6.9 mph - N/A   Overcast
3:56 PM 64.0 °F 63.0 °F 96% 29.95 in 7.0 mi North 6.9 mph - N/A   Overcast
4:56 PM 63.0 °F 62.1 °F 97% 29.95 in 7.0 mi North 6.9 mph - N/A   Overcast
5:56 PM 62.1 °F 61.0 °F 96% 29.96 in 6.0 mi North 5.8 mph - 0.00 in Rain Light Rain
6:56 PM 62.1 °F 61.0 °F 96% 29.98 in 4.0 mi North 6.9 mph - 0.00 in   Overcast
6:58 PM 62.6 °F 60.8 °F 94% 29.98 in 1.8 mi North 5.8 mph - N/A   Overcast
7:03 PM 60.8 °F 60.8 °F 100% 29.98 in 0.8 mi North 6.9 mph - N/A   Overcast
7:16 PM 60.8 °F 60.8 °F 100% 29.99 in 1.2 mi North 9.2 mph - N/A   Overcast
7:23 PM 60.8 °F 60.8 °F 100% 29.99 in 3.0 mi North 9.2 mph - 0.00 in Rain Light Rain
7:52 PM 59.0 °F 57.2 °F 94% 30.00 in 10.0 mi NNE 10.4 mph - 0.01 in Rain Light Rain
7:56 PM 59.0 °F 57.9 °F 96% 30.00 in 10.0 mi NNE 9.2 mph - 0.01 in Rain Light Rain
8:56 PM 55.9 °F 55.0 °F 97% 30.01 in 5.0 mi NNE 11.5 mph - 0.05 in Rain Light Rain
9:56 PM 55.0 °F 54.0 °F 96% 30.03 in 8.0 mi NE 10.4 mph - 0.04 in Rain Light Rain
10:56 PM 54.0 °F 53.1 °F 97% 30.04 in 10.0 mi NE 11.5 mph - 0.01 in   Overcast
11:53 PM 51.8 °F 51.8 °F 100% 30.03 in 10.0 mi ENE 10.4 mph 17.3 mph N/A   Overcast
11:56 PM 52.0 °F 51.1 °F 97% 30.03 in 10.0 mi ENE 12.7 mph 17.3 mph N/A   Overcast